[[{"header":{"parameterUnit":"m.s-1","parameterCategory":1,"la1":30.2991,"la2":30.254,"lo1":-89.0895,"lo2":-89.0444,"dy":0.0017,"dx":0.0017,"nx":28,"ny":28,"refTime":"2024-07-09T21:00:00:Z","depth":0,"parameterNumber":2,"parameterNumberName":"U-component_of_WINDS"},"data":[0,0,0,0,0,0,0,0,0,0,0,0,0,0,0,0,0,0,0,0,0,0,0,0,0,0,0,0,0,0,0,0,0,0,0,0,0,0,0,0,0,0,0,0,0,0,0,0,0,0,0,0,0,0,0,0,0,0,2.739,2.7391,0,2.747,2.7471,2.7472,2.7402,2.7399,2.7396,2.7393,2.7478,2.7483,2.7488,0,0,0,0,0,0,0,0,0,0,0,0,0,2.7176,2.7181,2.739,2.7391,2.7392,2.747,2.7471,2.7472,2.7402,2.7399,2.7395,2.7392,2.7476,2.7482,2.7488,0,0,0,0,0,0,0,0,0,0,0,0,0,2.7264,2.7182,2.7389,2.7366,2.7365,2.747,2.7471,2.7472,2.7403,2.7399,2.7394,2.739,2.7474,2.7482,2.7489,2.7621,0,0,2.7511,2.7515,0,0,0,0,0,0,0,0,2.7259,2.7272,2.7369,2.7368,2.7367,2.7421,2.7427,2.7522,2.7404,2.7389,2.7393,2.7388,2.7463,2.7471,2.7495,2.7625,2.7629,2.7512,2.7517,2.752,2.7522,0,0,0,0,0,0,0,2.7253,2.7268,2.7421,2.737,2.7369,2.7352,2.736,2.7445,2.7449,2.739,2.7385,2.7395,2.7461,2.7489,2.7497,2.763,2.7512,2.7519,2.7523,2.7526,2.7871,2.7875,0,0,0,0,0,0,2.725,2.7264,2.7419,2.7424,2.7301,2.7359,2.7368,2.7408,2.7448,2.745,2.7399,2.7392,2.7478,2.7488,2.75,2.7656,2.752,2.7527,2.7531,2.7866,2.7872,2.7877,0,0,0,0,0,0,2.7245,2.7264,2.7416,2.7342,2.736,2.7368,2.7414,2.7412,2.7439,2.7455,2.7455,2.7426,2.7475,2.7489,2.7591,2.7658,2.753,2.7537,2.786,2.7868,2.7874,2.7971,0,0,0,0,0,0,2.7239,2.7263,2.7313,2.7344,2.7365,2.7506,2.7418,2.7417,2.7452,2.7443,2.748,2.7482,2.7473,2.758,2.7598,2.7666,2.7543,2.7854,2.7864,2.7872,2.7962,2.798,2.7996,0,0,0,0,0,2.7232,2.7338,2.7316,2.7335,2.7428,2.751,2.7521,2.7508,2.7458,2.7508,2.7518,2.7481,2.7648,2.7591,2.7611,2.7682,2.785,2.7861,2.7871,2.7954,2.7976,2.7996,0,0,0,0,0,0,2.7316,2.7342,2.7318,2.7437,2.7472,2.7498,2.7561,2.7533,2.7583,2.7573,2.7554,2.7563,2.767,2.7686,2.7623,2.7811,2.7741,2.7756,2.7797,2.7819,2.7835,2.7829,2.7549,0,0,0,0,0,2.7348,2.7412,2.7431,2.7535,2.7553,2.7554,2.759,2.7576,2.7611,2.7626,2.7643,2.768,2.774,2.778,2.7837,2.7963,2.797,2.8022,2.8039,2.8053,2.8066,2.8133,2.8156,2.7912,2.7912,2.7911,0,0,2.7416,2.7438,2.748,2.7552,2.7577,2.7644,2.7567,2.7642,2.7691,2.7638,2.7734,2.7748,2.7787,2.7902,2.7953,2.7918,2.8135,2.8067,2.8078,2.8083,2.8146,2.8169,2.819,2.7919,2.7918,2.7916,0,0,2.7573,2.7596,2.7684,2.771,2.7749,2.7749,2.777,2.78,2.7807,2.7904,2.7864,2.7923,2.8028,2.8057,2.8085,2.8252,2.8219,2.8271,2.8361,2.8426,2.8445,2.8462,2.852,2.8542,2.8284,2.8284,2.8284,0,2.7652,2.7751,2.7733,2.781,2.7842,2.7796,2.7884,2.7911,2.7967,2.799,2.795,2.808,2.8103,2.8223,2.8263,2.8288,2.8311,2.8266,2.8444,2.8461,2.8476,2.8532,2.8554,2.829,2.8289,2.8289,2.8288,0,2.7846,2.7914,2.7981,2.8034,2.8074,2.8157,2.8151,2.8194,2.8177,2.8181,2.8279,2.8305,2.8365,2.8393,2.8377,2.851,2.8487,2.8446,2.8375,2.8506,2.8557,2.8578,2.8298,2.8296,2.8295,2.8293,0,0,2.8059,2.81,2.8124,2.8147,2.8186,2.8239,2.8319,2.8376,2.8413,2.8453,2.8519,2.8608,2.8569,2.8602,2.8589,2.8646,2.8775,2.8598,2.8598,2.8629,2.8921,2.8952,2.8976,2.8753,2.8757,2.8761,2.8918,0,2.8216,2.8354,2.8339,2.8471,2.8533,2.849,2.8559,2.859,2.8596,2.865,2.8656,2.8719,2.8664,2.8683,2.8738,2.8748,2.8833,2.8736,2.8814,2.8817,2.8805,2.9004,2.9036,2.9183,2.8938,2.8941,2.8944,0,2.8419,2.8464,2.8601,2.8628,2.8654,2.8716,2.8767,2.882,2.8854,2.8854,2.8889,2.8866,2.8946,2.8873,2.8983,2.8917,2.8948,2.8958,2.8963,2.8969,2.8888,2.9014,2.923,2.9252,2.8976,2.8973,2.8971,0,2.8559,2.8654,2.8748,2.8769,2.8803,2.8848,2.8865,2.8894,2.8929,2.8974,2.8997,2.9051,2.908,2.9123,2.9115,2.9063,2.9226,2.9153,2.9228,2.9228,2.9264,2.9262,2.9487,2.9286,2.9286,2.9285,2.9285,0,2.8736,2.8821,2.8811,2.8869,2.8963,2.8945,2.9039,2.905,2.9076,2.9135,2.9101,2.9158,2.9144,2.92,2.9194,2.9285,2.9299,2.9301,2.9298,2.9304,2.9303,2.9323,2.9313,2.9291,2.929,2.9289,2.9288,0,2.8908,2.8905,2.9004,2.9028,2.9036,2.9104,2.9124,2.9179,2.9181,2.9256,2.9272,2.9276,2.934,2.9336,2.9409,2.9404,2.9516,2.9502,2.9505,2.9501,2.9576,2.9569,2.9821,2.9853,2.9632,2.9634,2.9636,0,2.9021,2.9086,2.9116,2.9152,2.9171,2.9231,2.9266,2.9251,2.9289,2.9331,2.9381,2.9441,2.9488,2.9592,2.9602,2.9656,2.9643,2.9727,2.9651,2.9654,2.9643,2.9639,2.9645,2.9742,2.9745,2.9747,2.9749,0,2.9222,2.9216,2.9268,2.9318,2.9361,2.94,2.9436,2.9468,2.9457,2.9502,2.9565,2.9602,2.9675,2.9735,2.9787,2.9804,2.9775,2.9772,2.9792,2.9798,2.9797,2.9797,2.9545,2.9767,2.9765,2.9764,2.9763,2.9762,2.9367,2.9422,2.9451,2.9509,2.9534,2.9568,2.9619,2.9627,2.968,2.9737,2.9725,2.9797,2.9828,2.9895,2.9917,2.9972,2.9942,2.9972,2.9979,2.9986,2.9994,2.9788,2.9982,2.9982,2.9981,2.9981,2.998,0,2.9565,2.9581,2.9634,2.9685,2.973,2.9697,2.9735,2.9775,2.9838,2.9869,2.9916,2.9989,3.0047,3.006,3.0115,3.0157,3.0145,3.0172,3.0169,3.0173,3.0019,2.9995,3.0181,3.0181,3.0181,3.0181,3.0181,3.0181,2.9673,2.9763,2.9761,2.9862,2.9878,2.9946,2.9971,3.0002,3.0026,3.0108,3.0156,3.0163,3.0187,3.0244,3.0295,3.0297,3.0319,3.0351,3.0349,3.0204,3.0184,3.0165,3.0143,3.0356,3.0357,3.0498,3.0499,3.05]},{"header":{"parameterUnit":"m.s-1","parameterCategory":1,"la1":30.2991,"la2":30.254,"lo1":-89.0895,"lo2":-89.0444,"dy":0.0017,"dx":0.0017,"nx":28,"ny":28,"refTime":"2024-07-09T21:00:00:Z","depth":0,"parameterNumber":3,"parameterNumberName":"V-component_of_WINDS"},"data":[0,0,0,0,0,0,0,0,0,0,0,0,0,0,0,0,0,0,0,0,0,0,0,0,0,0,0,0,0,0,0,0,0,0,0,0,0,0,0,0,0,0,0,0,0,0,0,0,0,0,0,0,0,0,0,0,0,0,-0.3045,-0.3045,0,-0.3098,-0.3099,-0.3099,-0.3154,-0.3155,-0.3156,-0.3157,-0.3208,-0.3208,-0.3209,0,0,0,0,0,0,0,0,0,0,0,0,0,-0.2988,-0.2988,-0.3045,-0.3045,-0.3046,-0.3098,-0.3099,-0.31,-0.3154,-0.3155,-0.3156,-0.3157,-0.3207,-0.3208,-0.3209,0,0,0,0,0,0,0,0,0,0,0,0,0,-0.3024,-0.2989,-0.3045,-0.308,-0.3083,-0.3098,-0.3099,-0.31,-0.3154,-0.3155,-0.3156,-0.3157,-0.3207,-0.3208,-0.3209,-0.3192,0,0,-0.3212,-0.3212,0,0,0,0,0,0,0,0,-0.3022,-0.3026,-0.3074,-0.3077,-0.3082,-0.3121,-0.3097,-0.3131,-0.3154,-0.3127,-0.3157,-0.3158,-0.3177,-0.3181,-0.3188,-0.3194,-0.3197,-0.3212,-0.3213,-0.3213,-0.3213,0,0,0,0,0,0,0,-0.3019,-0.3024,-0.3066,-0.3075,-0.3079,-0.3092,-0.3098,-0.3104,-0.3145,-0.3129,-0.3134,-0.3139,-0.318,-0.3187,-0.319,-0.3197,-0.3212,-0.3213,-0.3213,-0.3214,-0.3193,-0.3192,0,0,0,0,0,0,-0.3012,-0.3021,-0.3064,-0.3067,-0.3054,-0.3092,-0.3099,-0.3107,-0.3145,-0.3152,-0.3138,-0.3142,-0.3185,-0.3189,-0.3192,-0.3175,-0.3213,-0.3214,-0.3214,-0.3194,-0.3192,-0.3191,0,0,0,0,0,0,-0.301,-0.3015,-0.3062,-0.3046,-0.3053,-0.3092,-0.31,-0.3107,-0.3115,-0.3152,-0.3159,-0.3139,-0.3186,-0.3191,-0.3192,-0.3177,-0.3214,-0.3215,-0.3195,-0.3193,-0.3192,-0.314,0,0,0,0,0,0,-0.3008,-0.3014,-0.3008,-0.3045,-0.3053,-0.3062,-0.3099,-0.3108,-0.3117,-0.3122,-0.3154,-0.3161,-0.3187,-0.319,-0.3193,-0.3179,-0.3216,-0.3197,-0.3194,-0.3192,-0.3143,-0.3136,-0.3131,0,0,0,0,0,-0.3006,-0.2991,-0.3008,-0.3013,-0.3047,-0.3061,-0.3065,-0.3097,-0.3116,-0.311,-0.3134,-0.3159,-0.3179,-0.319,-0.3193,-0.318,-0.3198,-0.3195,-0.3193,-0.3145,-0.3138,-0.3131,0,0,0,0,0,0,-0.295,-0.2996,-0.3016,-0.3012,-0.3032,-0.307,-0.3064,-0.3088,-0.3102,-0.3106,-0.3145,-0.3151,-0.3148,-0.3164,-0.3176,-0.3166,-0.3192,-0.319,-0.3155,-0.3148,-0.3142,-0.3137,-0.3217,0,0,0,0,0,-0.2937,-0.2945,-0.2985,-0.2978,-0.2987,-0.3024,-0.3031,-0.3054,-0.3076,-0.3084,-0.3108,-0.3128,-0.3138,-0.3144,-0.3156,-0.3146,-0.3154,-0.3138,-0.3132,-0.3127,-0.3125,-0.3121,-0.3114,-0.3183,-0.3183,-0.3183,0,0,-0.291,-0.2937,-0.2939,-0.2967,-0.2986,-0.2992,-0.303,-0.3035,-0.304,-0.3085,-0.3088,-0.3106,-0.313,-0.3126,-0.3125,-0.3139,-0.3108,-0.3124,-0.312,-0.312,-0.3117,-0.3111,-0.3105,-0.3181,-0.3181,-0.3182,0,0,-0.2865,-0.2887,-0.2883,-0.2901,-0.2929,-0.2954,-0.2953,-0.2988,-0.3002,-0.3006,-0.304,-0.3046,-0.3063,-0.3079,-0.3089,-0.3052,-0.3076,-0.3055,-0.3023,-0.3019,-0.3013,-0.3008,-0.2994,-0.2989,-0.3053,-0.3052,-0.3052,0,-0.2828,-0.2841,-0.2878,-0.2881,-0.2892,-0.2935,-0.2931,-0.2947,-0.2976,-0.2982,-0.2998,-0.3022,-0.3041,-0.3041,-0.3032,-0.3039,-0.3039,-0.3051,-0.3011,-0.3007,-0.3003,-0.299,-0.2985,-0.305,-0.305,-0.305,-0.305,0,-0.2794,-0.2802,-0.2795,-0.2825,-0.2835,-0.2835,-0.2871,-0.2877,-0.29,-0.2923,-0.2927,-0.2952,-0.2969,-0.2972,-0.2993,-0.2975,-0.2983,-0.3004,-0.3031,-0.2993,-0.2981,-0.2977,-0.3046,-0.3047,-0.3047,-0.3048,0,0,-0.2712,-0.2764,-0.2761,-0.2775,-0.281,-0.2816,-0.2818,-0.2837,-0.2841,-0.286,-0.2862,-0.2877,-0.2898,-0.2909,-0.2934,-0.293,-0.2898,-0.2952,-0.2953,-0.294,-0.2879,-0.2861,-0.2855,-0.2915,-0.2914,-0.2914,-0.2876,0,-0.2672,-0.2679,-0.2713,-0.271,-0.2717,-0.2759,-0.276,-0.2781,-0.2803,-0.2812,-0.2836,-0.2845,-0.2872,-0.288,-0.2878,-0.2902,-0.2886,-0.2906,-0.2916,-0.2916,-0.2907,-0.2849,-0.283,-0.2794,-0.2872,-0.2871,-0.2871,0,-0.2626,-0.2644,-0.2642,-0.2677,-0.2682,-0.2683,-0.2703,-0.2712,-0.2736,-0.2753,-0.2767,-0.2794,-0.2798,-0.2825,-0.283,-0.2842,-0.2849,-0.2861,-0.2861,-0.2862,-0.289,-0.2847,-0.2783,-0.2777,-0.2864,-0.2865,-0.2865,0,-0.2566,-0.259,-0.2592,-0.2603,-0.2644,-0.2644,-0.2661,-0.2688,-0.2697,-0.2714,-0.2721,-0.2738,-0.2747,-0.2759,-0.2791,-0.2808,-0.2792,-0.2821,-0.2805,-0.2804,-0.2798,-0.2798,-0.2733,-0.2804,-0.2804,-0.2804,-0.2805,0,-0.2517,-0.2513,-0.2566,-0.2566,-0.2564,-0.2603,-0.2599,-0.262,-0.2644,-0.2649,-0.2685,-0.2689,-0.2731,-0.274,-0.2765,-0.2765,-0.2769,-0.2781,-0.2787,-0.2777,-0.2775,-0.278,-0.2783,-0.2803,-0.2803,-0.2804,-0.2804,0,-0.2448,-0.2483,-0.2488,-0.2528,-0.2538,-0.2534,-0.2568,-0.257,-0.2595,-0.2601,-0.2605,-0.2643,-0.2655,-0.2688,-0.2708,-0.2725,-0.2718,-0.273,-0.2709,-0.2713,-0.2694,-0.2695,-0.2629,-0.2622,-0.2699,-0.2698,-0.2698,0,-0.2414,-0.2413,-0.2453,-0.246,-0.2476,-0.2486,-0.2497,-0.2536,-0.2545,-0.2574,-0.2572,-0.2587,-0.2601,-0.2618,-0.2647,-0.2663,-0.2676,-0.2652,-0.2678,-0.2668,-0.2674,-0.2673,-0.2673,-0.2645,-0.2644,-0.2643,-0.2643,0,-0.2349,-0.2367,-0.2381,-0.2401,-0.2413,-0.243,-0.245,-0.2453,-0.2497,-0.2505,-0.2518,-0.2529,-0.2551,-0.2565,-0.2586,-0.2603,-0.2629,-0.2635,-0.2631,-0.262,-0.2607,-0.2613,-0.2692,-0.2635,-0.2636,-0.2637,-0.2637,-0.2637,-0.2296,-0.2297,-0.2326,-0.234,-0.236,-0.2377,-0.2381,-0.2407,-0.242,-0.2441,-0.2464,-0.2474,-0.25,-0.2531,-0.2546,-0.2554,-0.2568,-0.2564,-0.2562,-0.256,-0.2555,-0.2607,-0.2558,-0.2558,-0.2559,-0.2559,-0.2559,0,-0.2232,-0.2253,-0.2267,-0.2293,-0.2305,-0.2331,-0.2355,-0.2362,-0.2371,-0.2394,-0.2407,-0.2423,-0.2437,-0.2468,-0.2485,-0.2486,-0.2499,-0.2489,-0.2489,-0.2492,-0.2542,-0.2543,-0.2479,-0.2479,-0.2479,-0.2479,-0.2479,-0.2479,-0.22,-0.2203,-0.2224,-0.2237,-0.2258,-0.227,-0.2281,-0.2297,-0.2315,-0.2331,-0.2344,-0.2365,-0.2391,-0.241,-0.2425,-0.2433,-0.2437,-0.2423,-0.2436,-0.2481,-0.2489,-0.2496,-0.2497,-0.2424,-0.2424,-0.2385,-0.2385,-0.2384]}]]